Regional Weather Roundup
Issued by NWS Bismarck, ND

Home | Current Version | Previous Version | Text Only | Print | Product List | Glossary On
Versions: 1 2 3 4 5 6 7 8 9 10 11 12 13 14 15 16 17 18 19 20 21 22 23 24 25 26 27 28 29 30 31 32 33 34 35 36 37 38 39 40 41 42 43 44 45 46 47 48 49 50
000
ASUS43 KBIS 260320
RWRBIS

NWR BROADCAST TEXT
NATIONAL WEATHER SERVICE BISMARCK ND
1000 PM CDT FRI JUL 25 2014

NOTE: "FAIR" INDICATES FEW OR NO CLOUDS BELOW 12,000 FEET WITH NO
SIGNIFICANT WEATHER AND/OR OBSTRUCTIONS TO VISIBILITY.


CITY           SKY/WX    TMP DP  RH WIND       PRES   REMARKS
WILLISTON      CLEAR     68  47  46 W9        29.75R
MINOT          CLEAR     67  56  67 SE6       29.76R
MINOT AFB      CLEAR     68  60  75 S6        29.75R
BISMARCK       CLEAR     65  53  65 SE7       29.80R
DICKINSON      CLEAR     63  55  75 S9        29.79R
GARRISON         N/A     65  60  84 SE3       29.77R
HETTINGER ARPT CLEAR     69  52  54 SE5       29.85R
JAMESTOWN      CLEAR     66  58  75 CALM      29.81R
CARRINGTON     FAIR      63  63 100 SE3       29.82R
CROSBY           N/A     59  57  94 NW16G23   29.79R
HARVEY         FAIR      64  57  77 SE6       29.80R
HAZEN          FAIR      64  54  68 S7        29.78R
LINTON         FAIR      64  55  72 SE8       29.83R
MANDAN         FAIR      64  54  68 S10       29.81S
RUGBY          FAIR      66  59  77 S6        29.78R
STANLEY        FAIR      64  55  72 S5        29.77S
TIOGA          FAIR      57  57 100 SW6       29.80R
WATFORD CITY   FAIR      57  54  88 CALM      29.76R FOG
$$

CITY           SKY/WX    TMP DP  RH WIND       PRES   REMARKS
GRAND FORKS    CLEAR     65  59  81 W6        29.77R
GRAND FORKS AF CLEAR     65  60  82 W5        29.79R
DEVILS LAKE    CLEAR     66  54  63 S5        29.78R
FARGO          CLEAR     70  58  65 W5        29.79R
CANDO          FAIR      63  57  82 S8        29.78S
CAVALIER       FAIR      66  57  72 SW6       29.75S
GRAFTON        FAIR      63  57  82 SW6       29.76R
GWINNER          N/A     66  63  88 NW5       29.84R
LANGDON        FAIR      57  55  94 S8        29.78R
ROLLA          FAIR      59  59 100 CALM      29.79R
WALHALLA         N/A     64  59  82 CALM        N/A
$$

CITY           SKY/WX    TMP DP  RH WIND       PRES   REMARKS
ABERDEEN       CLEAR     65  59  81 N3        29.84R
MOBRIDGE       CLEAR     66  51  58 E7        29.82R
BUFFALO          N/A     71  52  50 SE13      29.80R
RAPID CITY     PTCLDY    69  56  62 E8        29.89R
GLASGOW        CLEAR     66  47  50 NW14      29.82R
SIDNEY         CLEAR     64  39  39 W5        29.79R
WOLF POINT     CLEAR     70  49  47 N16       29.80R
GLENDIVE       CLEAR     68  39  34 NW6       29.84R
MILES CITY     CLEAR     77  27  15 NW9       29.84R
BAKER          CLEAR     73  38  27 SW6       29.85R
$$

CITY           SKY/WX    TMP DP  RH WIND       PRES   REMARKS
BILLINGS       CLEAR     78  31  17 N10       29.93R
GREAT FALLS    CLEAR     68  35  29 NW10      29.98R
REGINA         MOCLDY    59  54  82 SW16G25   29.66F
ESTEVAN        PTCLDY    63  57  82 NW16      29.77R
$$



USA.gov is the U.S. government's official web portal to all federal, state and local government web resources and services.